KUIPER-00561

导读

KUIPER-00561(NORAD编号69624)是亚马逊“柯伊伯计划”(Project Kuiper)低轨通信星座的组成卫星,该星座计划部署3232颗卫星以提供全球高速互联网服务。该卫星属于2025年发射的批次,发射后初始部署于465公里高度轨道,后续将抬升至星座额定工作轨道,在轨承担通信中继任务,未来将服务于地面宽带接入、航空机载互联等场景,目前处于正常运行状态。柯伊伯计划正按进度推进组网,按要求需在2026年7月前完成半数卫星部署。(全文150字)

Basic Information
目录编号:
69624
目录名称:
KUIPER-00561
国际标识:
2026-140AJ
轨道中心:
EARTH
卫星名称:
KUIPER-00561
卫星全名:
KUIPER-00561
卫星状态:
在轨 (已飞行86 天)
发射日期:
2026-06-17 UTC
国别 :
美国 (US)
星等 :
--
This satellite is enrolled in the Space Conjunction Data Service (SCDS) and the current flight risk assessment level is: No High Risk
Orbit Information
数据来源 国际轨道数据 AOE轨道数据
星历时间 2026-09-11T14:51:35+0800
11小时前
查看轨道信息
2026-09-10T07:00:00+0800
1天前
查看轨道信息
半长轴 7007.803km 7007.805km
偏心率 0.0001003 0.0001022
轨道倾角 51.903° 51.903°
近地点辐角 103.907° 115.904°
升交点赤经 352.417° 358.287°
平近点角 256.201° 7.586°
近地点 628.963km 628.951km
远地点 630.369km 630.385km
周期 97.304分钟 97.304分钟
每日圈数 14.79892 14.798913
Detailed Information
使用方式:
暂无
2D Orbit Map
3D Orbit Map
Orbit Altitude Analysis Chart
Orbit Inclination Analysis Chart
Orbit Comprehensive Analysis Chart
View Comprehensive Chart
Conjunction Data List
Event ID Objects TCA Miss Dist (km) Collision Risk Probability Collision Risk Index (CRI) Action
CDM_260912-015304-096006-962421
2026-09-12T
01:53:48+0000
0.562 km
远距离
1.357162E-4 高风险 0.78
CDM_260912-121606-595306-962421
2026-09-12T
12:16:50+0000
0.628 km
远距离
8.368629E-5 中风险 0.73
CDM_260913-002606-595306-962421
2026-09-13T
00:26:11+0000
1.695 km
极远距离
3.269343E-6 低风险 0.45
CDM_260913-164406-577006-962421
2026-09-13T
16:44:36+0000
1.586 km
极远距离
2.493366E-6 低风险 0.43
CDM_260913-223506-007906-962421
2026-09-13T
22:35:23+0000
1.924 km
极远距离
2.29531E-6 低风险 0.42
CDM_260912-103906-595306-962421
2026-09-12T
10:39:35+0000
2.424 km
极远距离
1.377334E-6 低风险 0.38
CDM_260912-224806-595306-962421
2026-09-12T
22:48:56+0000
2.488 km
极远距离
1.314252E-6 低风险 0.37
CDM_260913-124106-577006-962421
2026-09-13T
12:41:29+0000
2.480 km
极远距离
8.745456E-7 极低风险 0.34
CDM_260913-141806-577006-962421
2026-09-13T
14:18:44+0000
2.697 km
极远距离
7.708919E-7 极低风险 0.33
Miss Distance Evolution Trend with All Objects
Collision Probability Evolution Trend with All Objects